Location: Pel�-Koumbol�
(14.9505°N, 3.0798°W)
Time: 08:22:50
(UTC+00:00)

SWIFT - Pass Details

Date: 17 February 2020
Orbit: 545 x 560 km, 20.6° (Epoch: 06 April)

Event Time Altitude Azimuth Distance (km) Brightness Sun altitude
Exits shadow 05:48:59 17° 293° (WNW) 1,423 3.8 -12.0°
Maximum altitude 05:51:49 39° 356° (N) 826 3.1 -11.3°
Drops below altitude 10° 05:55:49 10° 66° (ENE) 1,824 5.9 -10.4°
Sets 05:58:13 0° 74° (ENE) 2,720 7.1 -9.8°
